Location: Shenandoah County Park
(38.9356°N, 78.4524°W)
Time: 12:55:32
(UTC-05:00)

Envisat - Pass Details

Date: 01 December 2021
Orbit: 764 x 766 km, 98.2° (Epoch: 23 January)

Event Time Altitude Azimuth Distance (km) Brightness Sun altitude
Rises 05:45:19 0° 6° (N) 3,240 6.2 -16.8°
Reaches altitude 10° 05:47:42 10° 0° (N) 2,310 5.3 -16.4°
Maximum altitude 05:52:33 46° 288° (WNW) 1,022 3.2 -15.5°
Drops below altitude 10° 05:57:22 10° 216° (SW) 2,294 5.3 -14.6°
Sets 05:59:43 0° 211° (SSW) 3,216 6.1 -14.1°
